Hourly Data Report for October 01, 2017

All times are specified in Local Standard Time (LST). Add 1 hour to adjust for Daylight Saving Time where and when it is observed.

BANCROFT AUTO
ONTARIO

45°04'17.000" N
77°52'44.000" W
330.70 m
616I001
71294
WRK

Download Data

Hourly Data (October 2017)
Hourly Data Report for October 1, 2017
Temp Definition
°C
Dew Point Temp Definition
°C
Rel Hum Definition
%
Wind Dir Definition
10's deg

Wind Spd Definition
km/h
Visibility Definition
km
Stn Press Definition
kPa
Hmdx Definition


Wind Chill Definition


Weather Definition


TIME
00:00 0.8 0.8 100   0   98.91     LegendNANA
01:00 1.6 1.6 100 32 1   98.92     LegendNANA
02:00 2.0 2.0 100   0   98.91     LegendNANA
03:00 2.0 2.0 100   0   98.90     LegendNANA
04:00 2.3 2.3 100 0 1   98.89     LegendNANA
05:00 2.2 2.2 100 31 2   98.94     LegendNANA
06:00 2.7 2.7 100   0   98.96     LegendNANA
07:00 2.8 2.8 100   0   98.95     LegendNANA
08:00 3.7 3.7 100 1 2   99.00     LegendNANA
09:00 6.0 6.0 100   0   98.99     LegendNANA
10:00 10.0 10.0 100 30 7   98.96     LegendNANA
11:00 12.3 4.6 59 31 9   98.91     LegendNANA
12:00 15.1 4.8 50 19 7   98.82     LegendNANA
13:00 16.5 3.8 43 25 7   98.77     LegendNANA
14:00 16.6 1.6 36 27 5   98.69     LegendNANA
15:00 17.1 2.2 37 26 3   98.65     LegendNANA
16:00 16.3 1.7 37 30 9   98.63     LegendNANA
17:00 14.2 4.2 51 29 4   98.62     LegendNANA
18:00 9.2 5.8 79 26 1   98.65     LegendNANA
19:00 6.2 5.2 94   0   98.65     LegendNANA
20:00 4.2 3.8 97   0   98.69     LegendNANA
21:00 2.9 2.7 98 2 2   98.71     LegendNANA
22:00 1.9 1.7 99   0   98.75     LegendNANA
23:00 1.2 1.1 99 30 1   98.78     LegendNANA

Notes on Data Quality.

Legend

  • E = Estimated
  • M = Missing
  • NA = Not Available
  • ‡ = Partner data that is not subject to review by the National Climate Archives
Date modified: